Wind_Speed
16 17 18 20 20 20 20 19 19 19 18 18 17 16 15 15 14 14 14 13 12 11 11 10 10 10 10 10 10 10 11 11 12 12 12 12 12 12 13 12 12 13 13 13
17 18 19 19 19 19 19 19 18 17 18 17 17 17 16 15 14 14 14 13 13 12 11 11 10 11 11 11 11 11 11 12 13 13 13 13 13 13 12 13 13 14 14 14
17 18 18 19 19 19 19 18 18 17 18 18 18 18 17 17 15 14 14 13 13 12 12 12 12 11 11 11 11 11 12 12 12 12 13 13 13 14 14 14 14 14 14 14
18 18 19 19 19 19 19 18 18 17 17 16 17 17 17 18 17 16 14 13 13 12 11 11 11 12 12 11 11 12 12 12 12 12 13 13 13 14 15 15 15 15 15 15
18 19 20 20 19 20 19 19 19 18 17 16 16 16 17 17 17 16 14 13 13 12 12 12 12 13 12 12 12 13 13 12 12 13 13 13 13 14 15 16 16 15 15 16
18 20 20 20 20 20 20 18 18 18 17 16 15 16 16 15 14 15 14 14 13 13 13 14 13 13 12 13 13 13 13 13 13 13 14 14 15 16 16 16 16 16 16 16
18 20 20 21 21 21 20 19 17 16 16 16 16 16 16 15 15 15 15 14 14 14 14 15 15 14 13 13 13 13 13 14 14 14 14 15 15 16 16 17 17 17 16 17
19 20 21 22 22 22 21 20 19 18 17 16 17 18 16 15 15 15 15 14 15 15 14 15 15 15 14 14 14 14 14 14 15 15 15 15 16 16 16 17 16 16 17 17
19 20 21 21 22 22 21 20 20 20 18 17 18 18 17 16 15 15 15 15 16 16 16 16 16 16 16 16 15 15 15 15 16 16 16 17 17 17 17 16 15 15 16 17
19 19 20 21 23 23 22 21 20 19 19 17 18 19 18 16 15 15 15 15 16 16 17 16 16 17 17 17 17 16 16 16 17 17 17 17 17 17 17 16 16 17 17 17
19 19 19 21 22 23 23 23 22 21 20 18 17 18 19 17 16 16 16 16 16 16 16 16 16 16 17 16 16 15 16 16 16 16 16 16 17 17 17 16 17 17 17 17
19 19 19 19 20 21 23 23 23 22 20 20 19 19 19 18 18 18 18 17 17 17 17 17 17 17 17 16 16 17 16 16 15 15 15 16 15 15 15 16 16 17 17 17
20 20 19 18 19 20 22 23 23 22 22 21 21 20 19 18 18 18 18 18 18 18 18 18 18 17 17 17 17 17 16 16 16 15 15 15 15 15 15 15 15 15 16 16
20 22 21 19 18 20 22 22 22 22 22 22 21 20 20 20 20 19 18 18 18 19 18 18 17 17 17 17 17 17 16 15 16 15 15 15 15 15 16 15 15 15 15 15
21 22 21 21 20 20 21 22 22 22 22 22 21 21 20 20 20 20 19 19 19 19 19 18 17 18 18 17 17 16 15 15 15 15 15 15 16 16 16 15 15 15 15 15
23 23 22 22 21 21 22 22 22 22 21 22 21 21 21 21 21 20 21 20 20 20 19 18 18 18 18 18 17 16 15 15 15 15 16 16 16 16 15 15 14 14 14 14
23 23 22 22 21 21 24 22 21 21 22 22 22 21 21 22 21 21 21 21 21 20 20 20 19 18 19 19 18 17 16 15 15 15 15 15 14 14 14 14 14 14 14 14
22 22 21 20 21 23 22 22 21 22 22 22 22 22 22 22 21 21 21 22 21 21 20 20 20 19 19 19 18 18 18 17 17 16 15 14 14 14 14 14 14 14 14 14
21 22 22 21 21 22 21 21 20 21 21 21 21 22 22 22 21 21 21 21 21 21 21 21 21 20 20 19 19 18 18 17 17 16 15 14 14 14 14 14 14 14 14 14
22 23 23 22 22 22 22 21 21 21 22 21 21 21 22 22 21 21 21 21 22 21 22 22 22 21 20 19 19 18 17 17 16 16 16 16 15 15 14 14 14 13 14 14
22 23 23 22 23 24 23 21 22 22 22 21 21 21 21 22 21 21 21 22 22 22 22 22 22 22 21 20 19 19 18 17 16 16 16 16 16 15 15 15 14 14 14 14
22 23 23 22 23 24 23 22 22 23 22 21 21 21 21 21 21 21 21 21 22 22 22 22 22 21 21 20 20 20 19 17 17 16 16 16 16 16 16 15 14 14 14 15
22 22 22 23 24 24 22 22 22 23 22 22 22 22 21 21 21 21 21 21 21 21 21 21 21 20 21 20 20 19 19 18 17 16 16 16 16 16 15 14 14 15 15 15
22 23 23 23 23 23 22 22 22 23 22 22 21 21 21 22 22 22 22 21 21 21 21 20 20 20 20 20 20 20 20 19 18 18 17 16 16 15 15 14 14 15 15 15
23 23 24 24 24 23 23 22 21 22 23 23 22 22 22 23 23 22 22 22 21 21 21 20 20 20 20 20 20 20 20 20 19 19 18 16 16 16 15 15 15 15 15 15
25 25 24 23 23 22 22 22 22 22 22 21 21 21 21 22 23 22 21 21 21 21 21 20 19 20 20 19 20 20 19 19 19 18 17 17 17 16 16 16 16 16 16 16
Wind_Direction
242 239 235 231 229 230 233 234 235 239 243 246 248 249 250 249 250 253 257 262 264 268 271 274 276 277 278 278 277 276 278 281 284 284 283 283 283 281 280 283 286 290 293 295
238 236 232 229 228 229 231 231 232 236 239 242 245 247 250 250 252 253 255 258 264 267 268 272 276 280 280 281 279 277 279 281 283 283 282 280 282 281 281 284 284 288 293 295
232 229 226 226 228 230 229 229 230 233 238 243 246 247 250 252 253 252 253 255 261 264 265 269 275 277 285 285 282 280 280 282 284 285 283 279 279 278 279 281 282 287 292 294
229 226 224 224 225 226 228 229 231 234 237 241 244 247 252 254 254 251 252 253 256 261 265 270 274 277 282 284 284 285 283 285 286 286 286 281 282 283 284 282 282 284 289 293
231 226 226 225 224 224 227 229 231 235 239 242 248 249 251 255 252 250 249 250 256 262 264 270 273 275 277 281 284 285 288 287 286 287 286 284 283 284 284 283 282 282 284 289
235 230 228 227 227 226 227 229 233 236 241 246 246 248 249 251 250 251 250 252 257 261 266 272 272 274 278 281 282 285 289 292 291 288 287 285 284 285 285 285 283 283 283 287
237 233 229 228 228 228 229 230 235 239 244 248 248 248 248 250 252 252 252 253 257 262 268 271 270 273 278 281 283 287 289 292 293 291 289 287 285 286 287 284 284 284 284 286
237 236 233 229 228 229 231 232 232 236 242 246 248 249 250 253 255 255 253 254 258 262 266 268 270 271 275 280 283 286 287 292 292 292 289 287 287 288 289 288 288 286 285 285
238 237 235 233 230 232 232 231 232 236 240 248 252 254 251 253 254 253 255 255 259 261 263 265 269 271 273 279 285 285 286 288 291 291 293 293 289 290 289 288 289 288 286 287
240 240 238 234 231 232 232 232 233 236 239 245 252 257 256 257 256 254 255 256 260 262 261 263 267 272 274 278 281 283 285 287 290 292 295 294 291 292 293 291 289 289 288 289
239 239 238 235 231 232 232 232 235 239 239 244 252 255 255 255 255 254 255 257 259 262 264 266 267 271 275 281 284 286 288 288 291 292 293 294 295 293 293 294 293 292 290 290
239 237 236 235 232 231 233 233 235 238 242 246 252 256 255 256 256 254 255 257 258 260 262 261 263 269 274 280 284 287 288 288 289 290 291 294 295 295 294 296 298 296 293 294
238 235 235 235 234 231 232 234 236 239 243 247 252 255 255 256 252 252 253 255 257 258 259 259 263 269 272 275 280 283 286 286 288 290 291 292 295 298 299 300 299 299 297 297
239 237 234 233 233 235 235 236 238 239 243 248 251 252 252 254 254 252 253 255 257 259 260 260 263 265 268 274 277 277 280 283 285 287 289 290 294 299 301 301 300 301 301 299
241 239 236 234 235 236 239 239 240 240 243 248 252 253 252 252 254 253 252 254 257 258 259 260 261 262 265 271 274 275 277 280 282 285 288 291 296 298 298 298 298 299 299 300
241 240 238 239 237 239 240 239 240 243 245 247 250 251 252 252 253 253 254 255 255 255 257 256 257 259 262 267 270 272 274 277 280 283 286 290 295 298 297 297 297 297 298 299
240 240 240 240 238 240 241 239 241 245 246 249 252 253 254 254 251 251 254 254 256 254 252 252 254 255 258 262 266 271 270 273 279 284 286 289 294 296 296 298 302 301 297 300
240 240 242 243 241 241 241 241 242 246 247 250 254 256 256 256 253 253 254 255 256 254 252 250 250 253 257 261 266 269 270 273 277 282 285 288 291 297 300 300 302 301 302 304
238 240 240 241 243 245 244 241 242 246 247 250 253 255 255 255 255 256 255 255 254 251 251 251 251 252 255 260 263 265 268 272 273 276 282 285 289 294 297 299 300 300 300 304
238 238 239 240 241 245 245 244 246 248 250 250 253 256 254 253 253 254 255 254 252 251 250 251 251 251 252 256 260 264 265 267 268 272 279 283 287 291 293 295 298 299 302 303
239 238 239 240 241 244 243 245 245 246 249 249 250 252 253 253 252 252 252 251 249 248 249 251 252 253 253 255 258 260 262 262 263 269 277 283 285 286 288 292 295 298 301 304
238 238 239 241 243 245 244 245 244 245 248 249 249 249 252 252 251 250 250 249 247 247 250 252 254 255 255 257 259 260 260 261 263 269 276 280 284 285 289 290 290 294 298 301
235 237 239 241 243 245 245 246 247 247 248 249 249 249 249 250 248 247 248 247 246 248 248 252 256 255 257 259 260 261 261 262 265 271 276 279 282 285 288 291 291 292 295 300
236 239 241 243 244 244 243 244 246 247 248 247 249 248 249 247 244 244 245 245 246 246 248 252 255 257 259 258 258 260 262 263 264 268 273 276 279 285 289 291 293 294 295 298
241 241 241 242 242 243 243 244 246 248 247 248 248 246 247 245 242 243 244 246 246 246 247 249 253 255 258 255 254 257 257 259 263 266 271 274 279 283 286 289 292 293 296 298
241 241 240 240 242 244 246 245 246 246 246 245 245 245 245 243 241 241 244 246 246 246 245 247 251 252 254 254 253 255 257 259 262 265 268 272 276 279 283 286 290 293 296 298
Height
5825 5828 5829 5832 5835 5838 5840 5843 5845 5847 5848 5850 5851 5852 5853 5853 5854 5854 5854 5854 5854 5854 5853 5853 5852 5851 5850 5850 5849 5848 5848 5847 5846 5845 5844 5843 5842 5842 5841 5840 5839 5838 5837 5836
5821 5823 5826 5828 5831 5833 5836 5839 5841 5844 5844 5846 5847 5849 5850 5850 5850 5851 5851 5851 5851 5851 5851 5851 5850 5849 5848 5847 5847 5846 5845 5844 5843 5842 5841 5840 5839 5839 5838 5837 5836 5835 5834 5833
5817 5820 5821 5824 5827 5829 5832 5835 5838 5840 5841 5842 5844 5845 5846 5846 5847 5847 5847 5848 5848 5848 5848 5848 5848 5847 5846 5845 5844 5843 5842 5841 5839 5838 5837 5837 5836 5835 5835 5834 5833 5832 5831 5829
5812 5815 5817 5820 5823 5826 5829 5832 5834 5836 5838 5839 5841 5842 5843 5842 5843 5844 5844 5845 5845 5845 5845 5845 5845 5844 5843 5842 5841 5840 5839 5838 5836 5835 5834 5833 5833 5832 5831 5830 5829 5828 5826 5825
5809 5811 5813 5816 5820 5823 5826 5828 5830 5832 5834 5836 5837 5838 5840 5839 5839 5840 5841 5842 5842 5842 5842 5842 5842 5841 5840 5839 5838 5837 5836 5835 5833 5832 5831 5830 5829 5828 5827 5826 5825 5823 5822 5821
5806 5807 5810 5813 5816 5819 5822 5824 5826 5828 5830 5832 5834 5834 5835 5835 5836 5837 5838 5839 5839 5839 5839 5839 5839 5838 5837 5836 5835 5834 5833 5832 5830 5829 5828 5827 5826 5825 5823 5822 5820 5819 5817 5816
5802 5803 5806 5809 5811 5814 5817 5821 5823 5825 5827 5829 5830 5830 5832 5832 5833 5834 5834 5835 5836 5836 5836 5836 5835 5835 5834 5833 5832 5831 5830 5828 5827 5826 5824 5823 5822 5820 5819 5817 5816 5814 5813 5811
5798 5800 5802 5804 5807 5810 5813 5817 5820 5823 5825 5826 5825 5825 5828 5828 5829 5829 5830 5831 5832 5832 5832 5832 5832 5831 5831 5830 5829 5828 5826 5825 5824 5822 5821 5819 5817 5816 5814 5812 5810 5809 5808 5806
5793 5796 5798 5800 5802 5805 5808 5811 5815 5818 5819 5821 5822 5822 5823 5823 5824 5825 5826 5827 5827 5828 5828 5828 5828 5828 5827 5826 5825 5824 5823 5821 5820 5818 5817 5815 5813 5811 5809 5807 5806 5804 5803 5801
5788 5791 5793 5795 5797 5800 5804 5807 5810 5812 5814 5816 5818 5818 5819 5819 5820 5821 5822 5822 5823 5824 5824 5824 5824 5824 5823 5822 5821 5820 5819 5817 5816 5814 5812 5810 5808 5806 5805 5802 5801 5799 5798 5796
5783 5785 5788 5790 5792 5795 5798 5801 5804 5807 5809 5812 5813 5816 5814 5814 5815 5816 5817 5818 5818 5819 5819 5819 5819 5819 5818 5818 5817 5816 5815 5813 5811 5810 5808 5806 5804 5802 5800 5799 5797 5794 5792 5791
5777 5780 5782 5785 5787 5790 5793 5796 5798 5802 5804 5806 5808 5812 5809 5809 5810 5811 5812 5813 5814 5814 5814 5815 5815 5815 5814 5813 5813 5812 5810 5809 5807 5805 5804 5802 5800 5798 5796 5794 5792 5790 5788 5786
5772 5775 5777 5780 5784 5785 5787 5790 5793 5796 5798 5800 5802 5806 5804 5804 5804 5806 5807 5808 5808 5809 5810 5810 5810 5810 5809 5809 5808 5807 5806 5805 5803 5801 5800 5798 5796 5794 5792 5790 5788 5785 5784 5782
5767 5769 5773 5777 5779 5780 5782 5785 5787 5790 5792 5794 5796 5798 5798 5798 5799 5800 5801 5802 5803 5804 5804 5805 5805 5805 5804 5804 5803 5802 5801 5800 5799 5797 5796 5794 5792 5790 5788 5786 5784 5781 5779 5777
5762 5764 5767 5770 5772 5775 5777 5779 5781 5784 5786 5788 5790 5791 5793 5793 5794 5795 5795 5797 5798 5798 5799 5799 5799 5800 5800 5799 5799 5797 5796 5796 5794 5793 5792 5790 5788 5786 5784 5782 5780 5778 5775 5773
5756 5759 5761 5764 5766 5769 5771 5773 5776 5778 5780 5781 5783 5785 5786 5787 5788 5789 5790 5791 5792 5793 5793 5793 5794 5794 5794 5794 5794 5793 5792 5791 5790 5789 5787 5786 5784 5782 5780 5778 5776 5774 5772 5770
5750 5753 5756 5758 5761 5763 5765 5768 5770 5772 5773 5775 5777 5779 5780 5781 5782 5783 5784 5785 5786 5787 5787 5788 5788 5789 5789 5789 5789 5788 5787 5787 5786 5784 5783 5781 5779 5777 5776 5774 5772 5770 5768 5766
5745 5747 5750 5752 5755 5757 5761 5762 5765 5766 5768 5769 5770 5772 5773 5775 5776 5777 5778 5779 5780 5781 5782 5782 5783 5783 5784 5784 5783 5783 5783 5782 5781 5780 5779 5777 5776 5774 5772 5770 5768 5766 5764 5762
5739 5742 5744 5747 5749 5751 5755 5756 5758 5760 5761 5763 5764 5766 5767 5768 5770 5771 5772 5773 5774 5775 5776 5776 5777 5777 5778 5779 5779 5778 5778 5777 5777 5776 5775 5773 5772 5770 5768 5766 5764 5762 5761 5759
5733 5736 5739 5741 5744 5746 5749 5750 5752 5755 5755 5757 5758 5759 5761 5762 5764 5766 5766 5767 5768 5769 5770 5771 5771 5772 5772 5773 5773 5773 5773 5772 5772 5771 5771 5769 5768 5766 5764 5763 5761 5759 5757 5755
5727 5730 5732 5735 5737 5739 5742 5744 5746 5749 5750 5750 5751 5753 5754 5756 5757 5759 5759 5760 5762 5763 5764 5764 5765 5766 5767 5767 5768 5768 5768 5768 5767 5767 5766 5765 5763 5762 5760 5759 5757 5755 5753 5751
5721 5724 5726 5729 5731 5734 5735 5737 5739 5741 5742 5743 5745 5747 5748 5749 5750 5752 5753 5754 5755 5757 5758 5758 5759 5760 5760 5761 5762 5762 5762 5762 5762 5762 5761 5760 5759 5757 5756 5754 5753 5751 5750 5748
5715 5718 5720 5723 5726 5726 5728 5730 5732 5733 5735 5737 5738 5740 5741 5743 5744 5745 5746 5747 5749 5751 5752 5753 5753 5754 5754 5755 5756 5756 5757 5757 5757 5757 5756 5755 5754 5753 5751 5750 5749 5747 5746 5744
5710 5712 5714 5716 5718 5720 5722 5723 5724 5726 5728 5730 5731 5733 5735 5736 5737 5739 5740 5741 5743 5745 5746 5747 5748 5748 5749 5749 5750 5751 5751 5752 5752 5751 5751 5750 5749 5748 5747 5746 5745 5743 5742 5740
5704 5705 5707 5709 5711 5713 5715 5716 5718 5720 5721 5723 5725 5726 5728 5729 5731 5732 5734 5735 5737 5738 5740 5741 5742 5743 5743 5743 5744 5745 5745 5746 5746 5746 5746 5745 5745 5744 5743 5742 5741 5739 5738 5736
5697 5699 5701 5703 5704 5707 5709 5710 5712 5713 5715 5716 5718 5719 5720 5722 5724 5726 5727 5729 5731 5732 5734 5736 5736 5737 5737 5738 5738 5739 5740 5741 5741 5741 5740 5740 5739 5739 5738 5737 5736 5734 5733 5731